Weather History for Dumas, TX

Change the Weather History Date:

Thursday, May 24, 2012

  Actual Average (KBGD) Record (KBGD)
Temperature  
Mean Temperature 71 °F 70 °F  
Max Temperature 89 °F 83 °F 99 °F (2000)
Min Temperature 53 °F 58 °F 46 °F (2002)
Degree Days  
Heating Degree Days 0 1  
Month to date heating degree days 57  
Since 1 July heating degree days 3760  
Cooling Degree Days 6 6  
Month to date cooling degree days 102  
Year to date cooling degree days 146  
Growing Degree Days 21 (Base 50)    
Moisture  
Dew Point 40 °F    
Average Humidity 37    
Maximum Humidity 72    
Minimum Humidity 13    
Precipitation  
Precipitation 0.00 in 0.12 in 1.23 in (1957)
Month to date precipitation 1.98  
Year to date precipitation 6.14  
Snow  
Snow 0.00 in - - ()
Month to date snowfall  
Since 1 July snowfall  
Snow Depth -    
Sea Level Pressure  
Sea Level Pressure 29.63 in    
Wind  
Wind Speed 16 mph (SE)    
Max Wind Speed 33 mph    
Max Gust Speed 43 mph    
Visibility 10 miles    
Events      
T = Trace of Precipitation, MM = Missing Value Source: NWS Daily Summary

Daily Weather History Graph

Daily Weather History Graph

Search for Another Location

Airport:

Trip Planner

Search our weather history database for the weather conditions in past years. The results will help you decide how hot, cold, wet, or windy it might be!

Date:

Astronomy

May. 24, 2012 Rise Set
Actual Time 6:36 AM CDT 8:54 PM CDT
Civil Twilight 6:07 AM CDT 9:23 PM CDT
Nautical Twilight 5:31 AM CDT 9:59 PM CDT
Astronomical Twilight 4:52 AM CDT 10:38 PM CDT
Moon 9:37 AM CDT (5/24) 11:57 PM CDT (5/24)
Length of Visible Light 15h 16m
Length of Day
14h 17m
Waxing Crescent, 12% of the Moon is Illuminated
May 24
Waxing Crescent
May 28
First Quarter
Jun 4
Full
Jun 11
Last Quarter
Jun 19
New

Hourly Weather History & Observations

Time (CDT) Temp. Dew Point Humidity Pressure Visibility Wind Dir Wind Speed Gust Speed Precip Events Conditions
12:15 AM 69.8 °F 28.4 °F 21% 29.42 in 10.0 mi SSW 12.7 mph - N/A   Clear
12:35 AM 77.0 °F 23.0 °F 13% 29.42 in 10.0 mi SW 17.3 mph - N/A   Clear
12:55 AM 78.8 °F 23.0 °F 13% 29.41 in 10.0 mi SW 20.7 mph - N/A   Clear
1:15 AM 78.8 °F 23.0 °F 13% 29.42 in 10.0 mi SW 16.1 mph - N/A   Clear
1:35 AM 77.0 °F 23.0 °F 13% 29.43 in 10.0 mi SW 16.1 mph - N/A   Clear
1:55 AM 75.2 °F 23.0 °F 14% 29.43 in 10.0 mi SW 16.1 mph - N/A   Clear
2:15 AM 71.6 °F 24.8 °F 17% 29.46 in 10.0 mi West 21.9 mph 31.1 mph N/A   Clear
2:35 AM 68.0 °F 50.0 °F 52% 29.49 in 10.0 mi NNW 20.7 mph 29.9 mph N/A   Clear
2:55 AM 64.4 °F 50.0 °F 59% 29.51 in 10.0 mi NNW 29.9 mph 35.7 mph N/A   Clear
3:15 AM 64.4 °F 50.0 °F 59% 29.53 in 7.0 mi NNW 33.4 mph 42.6 mph N/A   Scattered Clouds
3:35 AM 62.6 °F 48.2 °F 59% 29.54 in 7.0 mi North 26.5 mph 36.8 mph N/A   Scattered Clouds
3:55 AM 60.8 °F 46.4 °F 59% 29.56 in 10.0 mi NNW 29.9 mph 41.4 mph N/A   Clear
4:15 AM 59.0 °F 44.6 °F 59% 29.58 in 10.0 mi NNW 28.8 mph 36.8 mph N/A   Clear
4:35 AM 57.2 °F 42.8 °F 59% 29.60 in 10.0 mi NNW 27.6 mph 38.0 mph N/A   Clear
4:55 AM 55.4 °F 42.8 °F 63% 29.62 in 10.0 mi NNW 24.2 mph 33.4 mph N/A   Clear
5:15 AM 55.4 °F 42.8 °F 63% 29.62 in 10.0 mi NNW 24.2 mph 29.9 mph N/A   Clear
5:35 AM 55.4 °F 42.8 °F 63% 29.63 in 10.0 mi North 21.9 mph 28.8 mph N/A   Clear
5:55 AM 55.4 °F 42.8 °F 63% 29.64 in 10.0 mi North 21.9 mph 31.1 mph N/A   Clear
6:15 AM 53.6 °F 42.8 °F 67% 29.65 in 10.0 mi North 19.6 mph 27.6 mph N/A   Clear
6:35 AM 53.6 °F 42.8 °F 67% 29.66 in 10.0 mi North 18.4 mph 24.2 mph N/A   Clear
6:55 AM 53.6 °F 42.8 °F 67% 29.67 in 10.0 mi North 15.0 mph 18.4 mph N/A   Clear
7:15 AM 53.6 °F 42.8 °F 67% 29.68 in 10.0 mi North 15.0 mph 20.7 mph N/A   Clear
7:35 AM 53.6 °F 44.6 °F 72% 29.68 in 10.0 mi North 16.1 mph - N/A   Clear
7:55 AM 55.4 °F 44.6 °F 67% 29.68 in 10.0 mi North 16.1 mph 20.7 mph N/A   Clear
8:15 AM 55.4 °F 44.6 °F 67% 29.69 in 10.0 mi North 15.0 mph - N/A   Clear
8:35 AM 57.2 °F 44.6 °F 63% 29.69 in 10.0 mi North 16.1 mph 19.6 mph N/A   Clear
8:55 AM 59.0 °F 44.6 °F 59% 29.71 in 10.0 mi NNE 12.7 mph - N/A   Clear
9:15 AM 59.0 °F 44.6 °F 59% 29.71 in 10.0 mi North 11.5 mph - N/A   Clear
9:35 AM 60.8 °F 44.6 °F 55% 29.71 in 10.0 mi NNE 9.2 mph 16.1 mph N/A   Clear
9:55 AM 62.6 °F 42.8 °F 48% 29.71 in 10.0 mi NE 12.7 mph 16.1 mph N/A   Clear
10:15 AM 62.6 °F 44.6 °F 52% 29.72 in 10.0 mi NE 6.9 mph - N/A   Clear
10:35 AM 64.4 °F 44.6 °F 49% 29.72 in 10.0 mi ENE 6.9 mph - N/A   Clear
10:55 AM 64.4 °F 44.6 °F 49% 29.72 in 10.0 mi East 8.1 mph - N/A   Clear
11:15 AM 66.2 °F 44.6 °F 46% 29.72 in 10.0 mi Calm Calm - N/A   Clear
11:35 AM 68.0 °F 44.6 °F 43% 29.72 in 10.0 mi East 6.9 mph - N/A   Clear
11:55 AM 69.8 °F 44.6 °F 40% 29.72 in 10.0 mi East 3.5 mph - N/A   Clear
12:15 PM 69.8 °F 44.6 °F 40% 29.73 in 10.0 mi ENE 6.9 mph - N/A   Clear
12:35 PM 71.6 °F 42.8 °F 35% 29.72 in 10.0 mi Calm Calm - N/A   Clear
12:55 PM 73.4 °F 44.6 °F 36% 29.72 in 10.0 mi South 8.1 mph 16.1 mph N/A   Clear
1:15 PM 73.4 °F 42.8 °F 33% 29.72 in 10.0 mi East 6.9 mph - N/A   Clear
1:35 PM 73.4 °F 42.8 °F 33% 29.71 in 10.0 mi SSE 6.9 mph - N/A   Clear
1:55 PM 77.0 °F 42.8 °F 29% 29.70 in 10.0 mi South 8.1 mph - N/A   Clear
2:15 PM 78.8 °F 42.8 °F 28% 29.69 in 10.0 mi South 5.8 mph - N/A   Clear
2:35 PM 80.6 °F 41.0 °F 24% 29.68 in 10.0 mi SW 8.1 mph 17.3 mph N/A   Clear
2:55 PM 82.4 °F 41.0 °F 23% 29.67 in 10.0 mi SW 4.6 mph 16.1 mph N/A   Clear
3:15 PM 82.4 °F 37.4 °F 20% 29.67 in 10.0 mi SSW 9.2 mph - N/A   Clear
3:55 PM 86.0 °F 35.6 °F 17% 29.65 in 10.0 mi SSW 10.4 mph 17.3 mph N/A   Clear
4:15 PM 87.8 °F 33.8 °F 15% 29.65 in 10.0 mi SW 15.0 mph 19.6 mph N/A   Clear
4:35 PM 87.8 °F 33.8 °F 15% 29.64 in 10.0 mi SW 15.0 mph 20.7 mph N/A   Clear
4:55 PM 87.8 °F 33.8 °F 15% 29.63 in 10.0 mi SW 17.3 mph 21.9 mph N/A   Clear
5:15 PM 87.8 °F 33.8 °F 15% 29.63 in 10.0 mi WSW 15.0 mph 26.5 mph N/A   Clear
5:35 PM 89.6 °F 33.8 °F 14% 29.62 in 10.0 mi South 8.1 mph - N/A   Clear
5:55 PM 89.6 °F 33.8 °F 14% 29.62 in 10.0 mi SSW 11.5 mph - N/A   Clear
6:15 PM 89.6 °F 35.6 °F 15% 29.62 in 7.0 mi South 12.7 mph 20.7 mph N/A   Clear
6:35 PM 89.6 °F 35.6 °F 15% 29.61 in 7.0 mi South 15.0 mph - N/A   Clear
6:55 PM 89.6 °F 35.6 °F 15% 29.61 in 10.0 mi South 12.7 mph 17.3 mph N/A   Clear
7:15 PM 87.8 °F 35.6 °F 16% 29.61 in 7.0 mi SSE 18.4 mph 23.0 mph N/A   Clear
7:35 PM 87.8 °F 37.4 °F 17% 29.61 in 10.0 mi SSE 16.1 mph 21.9 mph N/A   Clear
7:55 PM 86.0 °F 37.4 °F 18% 29.61 in 10.0 mi SSE 17.3 mph - N/A   Clear
8:15 PM 86.0 °F 35.6 °F 17% 29.62 in 10.0 mi SE 12.7 mph - N/A   Clear
8:35 PM 82.4 °F 37.4 °F 20% 29.62 in 10.0 mi SE 13.8 mph - N/A   Clear
8:55 PM 80.6 °F 37.4 °F 21% 29.62 in 10.0 mi SE 10.4 mph - N/A   Clear
9:15 PM 78.8 °F 35.6 °F 21% 29.63 in 10.0 mi SE 10.4 mph - N/A   Clear
9:35 PM 77.0 °F 35.6 °F 22% 29.63 in 10.0 mi SE 9.2 mph - N/A   Clear
10:15 PM 75.2 °F 39.2 °F 27% 29.65 in 10.0 mi ESE 9.2 mph - N/A   Clear
10:35 PM 75.2 °F 39.2 °F 27% 29.66 in 10.0 mi ESE 12.7 mph - N/A   Clear
10:55 PM 73.4 °F 44.6 °F 36% 29.67 in 10.0 mi ESE 12.7 mph - N/A   Clear
11:15 PM 71.6 °F 46.4 °F 41% 29.68 in 10.0 mi ESE 15.0 mph - N/A   Clear
11:35 PM 71.6 °F 46.4 °F 41% 29.68 in 10.0 mi ESE 12.7 mph - N/A   Clear
11:55 PM 71.6 °F 46.4 °F 41% 29.68 in 10.0 mi ESE 15.0 mph - N/A   Clear